Waarnemingen

Advertentie
Mijn weer
Aeroport de Lannion, Frankrijk (7118): temperatuur & dauwpunt: 23.05.2020 02:00:00 - 29.05.2020 02:00:00 (CEST)Aeroport de Lannion, Frankrijk (7118): windsnelheid & windstoten: 23.05.2020 02:00:00 - 29.05.2020 02:00:00 (CEST)Aeroport de Lannion, Frankrijk (7118): windrichting: 23.05.2020 02:00:00 - 29.05.2020 02:00:00 (CEST)Aeroport de Lannion, Frankrijk (7118): luchtdruk: 23.05.2020 02:00:00 - 29.05.2020 02:00:00 (CEST)Aeroport de Lannion, Frankrijk (7118): zicht: 23.05.2020 02:00:00 - 29.05.2020 02:00:00 (CEST)Aeroport de Lannion, Frankrijk (7118): neerslag: 23.05.2020 02:00:00 - 29.05.2020 02:00:00 (CEST)
Datum & Tijd tt [°C] td [°C] ff [km/u] ff [kn] fx [km/u] fx [kn] dd ppp [hPa] vv [km] rr [mm]
29.05.2020 02:00:00 12,9 9,7 9 5 24 13 O 1025,9 17 0,0
29.05.2020 01:00:00 13,8 9,8 11 6 22 12 O 1026,1 18 0,0
29.05.2020 00:00:00 14,2 9,2 10 5 22 12 O 1026,6 20 0,0
28.05.2020 23:00:00 14,7 8,9 10 5 24 13 O 1026,9 19 0,0
28.05.2020 22:00:00 15,5 9,4 12 6 29 16 ONO 1026,8 40 0,0
28.05.2020 21:00:00 17,0 9,2 17 9 39 21 ONO 1026,7 40 0,0
28.05.2020 20:00:00 18,4 6,9 22 12 37 20 O 1026,7 32 0,0
28.05.2020 19:00:00 19,2 7,6 21 12 37 20 ONO 1026,9 25 0,0
28.05.2020 18:00:00 20,3 8,3 18 10 38 20 ONO 1027,3 19 0,0
28.05.2020 17:00:00 20,2 6,5 21 12 37 20 ONO 1027,7 17 0,0
28.05.2020 16:00:00 20,9 7,5 20 11 42 23 ONO 1028,3 16 0,0
28.05.2020 15:00:00 21,3 7,1 21 12 42 23 ONO 1028,9 16 0,0
28.05.2020 14:00:00 21,3 8,5 19 11 41 22 ONO 1029,3 17 0,0
28.05.2020 13:00:00 20,2 9,7 23 13 50 27 ONO 1029,8 17 0,0
28.05.2020 12:00:00 20,6 9,5 24 13 41 22 ONO 1030,3 16 0,0
28.05.2020 11:00:00 19,7 9,6 23 12 43 23 O 1030,7 11 0,0
28.05.2020 10:00:00 18,8 9,8 20 11 42 23 O 1031,2 9 0,0
28.05.2020 09:00:00 16,7 11,4 18 10 34 19 O 1031,4 7 0,0
28.05.2020 08:00:00 15,3 11,7 16 9 29 16 O 1031,4 7 0,0
28.05.2020 07:00:00 14,1 11,6 14 8 26 14 O 1031,3 10 0,0
28.05.2020 06:00:00 13,3 11,4 11 6 19 10 O 1031,7 20 0,0
28.05.2020 05:00:00 14,1 10,9 12 7 22 12 O 1031,7 25 0,0
28.05.2020 04:00:00 14,3 10,5 11 6 20 11 O 1031,8 28 0,0
28.05.2020 03:00:00 15,1 10,1 9 5 21 12 ONO 1032,1 34 0,0
28.05.2020 02:00:00 14,8 10,2 9 5 18 10 O 1032,4 31 0,0
28.05.2020 01:00:00 15,7 10,0 10 5 18 10 O 1032,7 34 0,0
28.05.2020 00:00:00 16,4 10,0 11 6 23 12 ONO 1032,8 34 0,0
27.05.2020 23:00:00 16,7 10,1 8 5 17 9 ONO 1033,0 31 0,0
27.05.2020 22:00:00 17,1 10,9 7 4 26 14 NO 1032,6 32 0,0
27.05.2020 21:00:00 20,2 10,0 15 8 34 18 ONO 1032,3 27 0,0
27.05.2020 20:00:00 20,6 10,4 11 6 29 15 NNO 1032,2 32 0,0
27.05.2020 19:00:00 20,6 9,8 18 10 31 17 NNO 1032,5 25 0,0
27.05.2020 18:00:00 21,4 10,5 17 9 29 16 NNO 1032,8 20 0,0
27.05.2020 17:00:00 21,7 11,4 17 9 27 15 NNO 1033,2 27 0,0
27.05.2020 16:00:00 21,3 11,3 17 9 31 17 N 1033,3 19 0,0
27.05.2020 15:00:00 23,2 10,6 16 9 34 18 N 1033,4 28 0,0
27.05.2020 14:00:00 22,8 10,2 16 9 26 14 N 1033,8 29 0,0
27.05.2020 13:00:00 21,5 10,9 14 7 20 11 N 1034,1 31 0,0
27.05.2020 12:00:00 22,3 10,8 9 5 23 13 NO 1034,3 20 0,0
27.05.2020 11:00:00 20,9 9,2 12 7 26 14 O 1034,6 32 0,0
27.05.2020 10:00:00 19,3 8,6 13 7 21 11 O 1035,0 34 0,0
27.05.2020 09:00:00 17,4 10,5 5 3 12 6 NO 1035,1 38 0,0
27.05.2020 08:00:00 15,0 9,6 4 2 9 5 NO 1035,0 35 0,0
27.05.2020 07:00:00 10,0 7,1 0 0 4 2 N 1035,1 31 0,0
27.05.2020 06:00:00 10,7 7,4 2 1 5 3 NO 1034,9 39 0,0
27.05.2020 05:00:00 10,3 7,2 3 1 6 4 OZO 1034,9 42 0,0
27.05.2020 04:00:00 10,9 7,8 2 1 7 4 NO 1035,2 51 0,0
27.05.2020 03:00:00 11,8 7,9 3 2 9 5 NNO 1035,4 49 0,0
27.05.2020 02:00:00 11,8 8,5 4 2 8 4 NNO 1035,4 40 0,0
27.05.2020 01:00:00 12,6 9,6 3 2 13 7 ONO 1035,3 33 0,0
27.05.2020 00:00:00 13,4 9,6 6 4 14 8 NNO 1035,5 37 0,0
26.05.2020 23:00:00 13,8 9,8 8 5 16 9 NNO 1035,7 33 0,0
26.05.2020 22:00:00 14,3 9,9 10 5 21 11 N 1035,4 31 0,0
26.05.2020 21:00:00 15,7 9,8 13 7 29 16 NNO 1035,2 21 0,0
26.05.2020 20:00:00 16,6 9,8 17 9 27 15 N 1035,1 31 0,0
26.05.2020 19:00:00 17,4 9,8 16 9 25 14 N 1035,5 27 0,0
26.05.2020 18:00:00 18,5 7,9 18 10 27 15 N 1035,6 27 0,0
26.05.2020 17:00:00 19,5 8,5 16 9 27 14 N 1035,9 20 0,0
26.05.2020 16:00:00 19,2 9,1 17 9 31 17 NNO 1036,1 28 0,0
26.05.2020 15:00:00 20,5 8,8 18 10 27 15 N 1036,1 31 0,0
26.05.2020 14:00:00 19,8 9,7 15 8 26 14 NNO 1036,3 34 0,0
26.05.2020 13:00:00 19,7 10,4 16 8 23 13 NNO 1036,5 37 0,0
26.05.2020 12:00:00 18,9 10,7 13 7 21 11 NNO 1036,7 35 0,0
26.05.2020 11:00:00 17,9 10,5 10 6 19 10 NNO 1036,9 37 0,0
26.05.2020 10:00:00 17,3 10,4 9 5 16 8 NNO 1036,8 20 0,0
26.05.2020 09:00:00 16,2 10,7 7 4 14 7 NNO 1036,4 38 0,0
26.05.2020 08:00:00 12,7 9,7 5 3 11 6 N 1036,4 47 0,0
26.05.2020 07:00:00 9,4 8,6 0 0 7 4 N 1036,3 5 0,0
26.05.2020 06:00:00 8,4 7,3 3 2 6 4 NW 1036,0 19 0,0
26.05.2020 05:00:00 10,3 9,4 4 2 8 4 NNO 1035,8 25 0,2
26.05.2020 04:00:00 8,6 7,4 3 2 5 3 N 1035,9 19 0,0
26.05.2020 03:00:00 9,2 7,5 3 2 5 3 N 1036,0 36 0,0
26.05.2020 02:00:00 9,5 7,4 2 1 8 4 NO 1036,2 38 0,0
26.05.2020 01:00:00 11,4 8,4 0 0 8 5 N 1036,1 45 0,0
26.05.2020 00:00:00 12,0 9,0 3 2 13 7 NO 1036,1 33 0,0
25.05.2020 23:00:00 12,8 8,1 7 4 11 6 NNW 1036,1 50 0,0
25.05.2020 22:00:00 14,7 8,6 5 3 18 10 ONO 1035,2 48 0,0
25.05.2020 21:00:00 16,7 8,4 10 5 22 12 NO 1034,8 42 0,0
25.05.2020 20:00:00 17,1 9,0 11 6 25 14 NNO 1034,8 35 0,0
25.05.2020 19:00:00 17,3 9,2 15 8 27 15 N 1035,0 27 0,0
25.05.2020 18:00:00 18,4 9,2 18 10 28 15 N 1035,0 29 0,0
25.05.2020 17:00:00 19,1 10,1 18 10 32 17 N 1034,9 20 0,0
25.05.2020 16:00:00 19,7 11,5 19 10 30 16 N 1034,8 20 0,0
25.05.2020 15:00:00 19,4 12,2 18 10 24 13 N 1035,0 19 0,0
25.05.2020 14:00:00 19,6 11,4 13 7 20 11 N 1035,1 19 0,0
25.05.2020 13:00:00 18,6 11,9 12 6 23 12 N 1035,2 20 0,0
25.05.2020 12:00:00 19,2 11,0 11 6 25 14 O 1035,2 18 0,0
25.05.2020 11:00:00 17,3 12,2 10 5 18 10 O 1035,5 17 0,0
25.05.2020 10:00:00 14,0 12,0 7 4 18 10 O 1035,6 8 0,0
25.05.2020 09:00:00 11,1 10,6 9 5 15 8 O 1035,5 5 0,0
25.05.2020 08:00:00 9,6 9,3 7 4 15 8 OZO 1035,4 0,2 0,0
25.05.2020 07:00:00 8,6 8,3 9 5 14 8 ZO 1035,0 0,1 0,0
25.05.2020 06:00:00 7,6 7,3 7 4 9 5 OZO 1035,0 0,1 0,0
25.05.2020 05:00:00 7,4 7,0 4 2 6 3 O 1035,0 0,1 0,2
25.05.2020 04:00:00 7,3 6,7 0 0 5 3 N 1035,2 0,3 0,0
25.05.2020 03:00:00 7,0 6,1 0 0 3 2 N 1035,4 0,4 0,0
25.05.2020 02:00:00 10,0 9,1 2 1 8 4 ONO 1035,4 10 0,0
25.05.2020 01:00:00 9,9 9,0 4 2 7 4 O 1035,5 9 0,0
25.05.2020 00:00:00 9,6 8,2 0 0 6 3 N 1035,6 7 0,0
24.05.2020 23:00:00 11,5 9,7 7 4 12 6 N 1035,4 12 0,0
24.05.2020 22:00:00 12,4 9,8 5 3 13 7 NNO 1035,2 14 0,0
24.05.2020 21:00:00 13,8 9,6 9 5 20 11 N 1035,0 18 0,0
24.05.2020 20:00:00 14,2 9,4 14 8 21 11 N 1035,0 18 0,0
24.05.2020 19:00:00 14,5 9,1 13 7 25 14 NNO 1035,3 17 0,0
24.05.2020 18:00:00 15,5 8,5 16 9 24 13 N 1035,2 18 0,0
24.05.2020 17:00:00 16,2 9,6 14 8 23 12 N 1035,2 18 0,0
24.05.2020 16:00:00 17,0 8,9 10 5 19 11 WNW 1035,2 20 0,0
24.05.2020 15:00:00 16,3 8,5 12 6 21 11 NW 1035,4 19 0,0
24.05.2020 14:00:00 15,8 6,5 15 8 23 12 NW 1035,1 19 0,0
24.05.2020 13:00:00 15,9 9,8 9 5 21 12 WNW 1035,1 17 0,0
24.05.2020 12:00:00 15,2 8,9 13 7 24 13 WNW 1035,7 18 0,0
24.05.2020 11:00:00 14,7 10,1 12 7 25 13 WNW 1035,7 17 0,0
24.05.2020 10:00:00 13,1 9,9 14 8 21 12 W 1035,8 17 0,0
24.05.2020 09:00:00 12,5 10,6 14 8 21 11 W 1035,3 13 0,0
24.05.2020 08:00:00 10,2 9,3 6 3 12 6 ZZW 1035,0 13 0,0
24.05.2020 07:00:00 8,6 8,0 9 5 12 6 ZZW 1034,5 11 0,0
24.05.2020 06:00:00 8,4 7,5 8 4 11 6 ZZW 1034,1 10 0,0
24.05.2020 05:00:00 9,0 7,8 5 3 16 9 Z 1034,0 11 0,0
24.05.2020 04:00:00 9,9 8,3 5 3 19 11 ZZW 1034,0 12 0,0
24.05.2020 03:00:00 10,6 8,9 12 6 22 12 W 1034,1 14 0,0
24.05.2020 02:00:00 10,9 9,2 12 6 23 13 W 1034,1 14 0,0
24.05.2020 01:00:00 10,5 8,6 14 7 24 13 W 1034,1 14 0,0
24.05.2020 00:00:00 10,8 8,6 15 8 35 19 W 1033,9 14 0,0
23.05.2020 23:00:00 11,7 9,8 18 10 31 17 W 1033,6 13 0,0
23.05.2020 22:00:00 11,6 9,3 19 10 35 19 W 1033,0 14 0,0
23.05.2020 21:00:00 12,7 9,5 22 12 42 23 W 1032,7 14 0,0
23.05.2020 20:00:00 13,5 9,2 29 16 48 26 W 1032,4 9 0,0
23.05.2020 19:00:00 14,6 9,8 31 17 55 30 W 1032,1 9 0,0
23.05.2020 18:00:00 15,0 9,8 34 19 56 30 W 1031,5 9 0,0
23.05.2020 17:00:00 15,6 9,5 36 20 58 31 W 1031,1 11 0,0
23.05.2020 16:00:00 15,6 9,3 38 21 52 28 W 1030,7 10 0,0
23.05.2020 15:00:00 16,3 9,7 32 18 53 29 W 1030,4 12 0,0
23.05.2020 14:00:00 16,0 9,6 33 18 57 31 W 1030,1 15 0,0
23.05.2020 13:00:00 15,8 9,7 35 19 58 32 W 1029,8 17 0,0
23.05.2020 12:00:00 15,4 10,0 38 20 55 30 W 1029,4 15 0,0
23.05.2020 11:00:00 15,2 10,0 29 16 49 27 W 1028,8 16 0,0
23.05.2020 10:00:00 14,3 9,9 29 15 44 24 W 1028,0 16 0,0
23.05.2020 09:00:00 13,3 9,9 25 14 41 22 WZW 1027,5 15 0,0
23.05.2020 08:00:00 12,0 9,4 19 11 35 19 WZW 1026,9 14 0,0
23.05.2020 07:00:00 11,4 9,3 19 11 29 16 WZW 1026,7 13 0,0
23.05.2020 06:00:00 11,0 9,1 17 9 28 15 ZW 1026,2 12 0,0
23.05.2020 05:00:00 11,5 9,4 17 9 35 19 ZW 1025,7 12 0,0
23.05.2020 04:00:00 12,0 9,4 18 10 31 17 WZW 1025,4 13 0,0
23.05.2020 03:00:00 12,5 9,7 19 11 31 17 WZW 1025,3 13 0,0
23.05.2020 02:00:00 12,5 9,7 13 7 24 13 ZZW 1025,2 13 0,0

tt = temperatuur
td = dauwpunt
ff = windsnelheid
fx = windstoten
dd = windrichting
ppp = luchtdruk
vv = zicht
rr = neerslag

Weerstations in de omgeving